• In Deutschland
  • Länderverzeichnis
  • Für 7 Tage
  • Wassertemperatur
  • Satellitenkarten
  • Wetterkarte
  • Widgets
  • user-avatar
    Anmelden

    Stündliche Wetter Griesheim

    Heute, 17 August, Freitag

    Zeit Temperatur Niederschläge Wind Luftdruck Luftfeuchtigkeit
    00:00 +23°C° 0 mm 1 m/S 751 mmHg 57%
    01:00 +23°C° 0 mm 1 m/S 751 mmHg 58%
    02:00 +22°C° 0 mm 1 m/S 751 mmHg 60%
    03:00 +22°C° 0 mm 1 m/S 751 mmHg 63%
    04:00 +22°C° 0 mm 1 m/S 751 mmHg 65%
    05:00 +22°C° 0,1 mm 1 m/S 751 mmHg 66%
    06:00 +22°C° 0,1 mm 1 m/S 751 mmHg 66%
    07:00 +23°C° 0 mm 1 m/S 751 mmHg 66%
    08:00 +24°C° 0,2 mm 2 m/S 752 mmHg 62%
    09:00 +26°C° 0,2 mm 2 m/S 752 mmHg 58%
    10:00 +27°C° 0,2 mm 2 m/S 752 mmHg 54%
    11:00 +29°C° 0,1 mm 2 m/S 752 mmHg 49%
    12:00 +30°C° 0,1 mm 2 m/S 752 mmHg 44%
    13:00 +32°C° 0,1 mm 2 m/S 752 mmHg 39%
    14:00 +32°C° 0 mm 2 m/S 752 mmHg 40%
    15:00 +31°C° 0 mm 2 m/S 752 mmHg 40%
    16:00 +31°C° 0 mm 2 m/S 752 mmHg 41%
    17:00 +30°C° 0,1 mm 3 m/S 752 mmHg 47%
    18:00 +28°C° 0,1 mm 3 m/S 752 mmHg 54%
    19:00 +26°C° 0,1 mm 4 m/S 753 mmHg 61%
    20:00 +25°C° 0,6 mm 3 m/S 753 mmHg 68%
    21:00 +22°C° 0,6 mm 3 m/S 754 mmHg 75%
    22:00 +21°C° 0,6 mm 3 m/S 754 mmHg 83%
    23:00 +20°C° 0,3 mm 3 m/S 755 mmHg 84%

    Morgen, 18 August, Samstag

    Zeit Temperatur Niederschläge Wind Luftdruck Luftfeuchtigkeit
    00:00 +20°C° 0,3 mm 2 m/S 755 mmHg 85%
    01:00 +19°C° 0,3 mm 2 m/S 755 mmHg 86%
    02:00 +19°C° 0 mm 2 m/S 755 mmHg 86%
    03:00 +18°C° 0 mm 2 m/S 756 mmHg 86%
    04:00 +18°C° 0 mm 2 m/S 756 mmHg 87%
    05:00 +18°C° 0 mm 2 m/S 756 mmHg 85%
    06:00 +18°C° 0 mm 2 m/S 756 mmHg 83%
    07:00 +20°C° 0 mm 1 m/S 756 mmHg 82%
    08:00 +20°C° 0 mm 2 m/S 756 mmHg 74%
    09:00 +23°C° 0 mm 2 m/S 757 mmHg 67%
    10:00 +25°C° 0 mm 2 m/S 757 mmHg 60%
    11:00 +26°C° 0 mm 2 m/S 757 mmHg 55%
    12:00 +27°C° 0 mm 2 m/S 757 mmHg 51%
    13:00 +28°C° 0 mm 2 m/S 756 mmHg 46%
    14:00 +29°C° 0 mm 2 m/S 756 mmHg 44%
    15:00 +29°C° 0 mm 2 m/S 756 mmHg 42%
    16:00 +29°C° 0 mm 1 m/S 756 mmHg 40%
    17:00 +28°C° 0 mm 1 m/S 756 mmHg 44%
    18:00 +27°C° 0 mm 1 m/S 756 mmHg 47%
    19:00 +26°C° 0 mm 1 m/S 756 mmHg 51%
    20:00 +25°C° 0 mm 1 m/S 756 mmHg 53%
    21:00 +23°C° 0 mm 1 m/S 757 mmHg 54%
    22:00 +22°C° 0 mm 1 m/S 757 mmHg 56%
    23:00 +21°C° 0 mm 1 m/S 757 mmHg 58%

    übermorgen, 19 August, Sonntag

    Zeit Temperatur Niederschläge Wind Luftdruck Luftfeuchtigkeit
    00:00 +21°C° 0 mm 1 m/S 757 mmHg 60%
    01:00 +20°C° 0 mm 1 m/S 757 mmHg 61%
    02:00 +20°C° 0 mm 1 m/S 757 mmHg 64%
    03:00 +19°C° 0 mm 1 m/S 757 mmHg 66%
    04:00 +19°C° 0 mm 1 m/S 757 mmHg 68%
    05:00 +19°C° 0 mm 1 m/S 757 mmHg 68%
    06:00 +20°C° 0 mm 1 m/S 757 mmHg 67%
    07:00 +20°C° 0 mm 1 m/S 757 mmHg 67%
    08:00 +21°C° 0 mm 0 m/S 757 mmHg 60%
    09:00 +23°C° 0 mm 0 m/S 757 mmHg 53%
    10:00 +26°C° 0 mm 0 m/S 757 mmHg 47%
    11:00 +27°C° 0 mm 0 m/S 757 mmHg 43%
    12:00 +30°C° 0 mm 1 m/S 756 mmHg 39%
    13:00 +31°C° 0 mm 1 m/S 756 mmHg 35%
    14:00 +31°C° 0 mm 1 m/S 756 mmHg 33%
    15:00 +31°C° 0 mm 1 m/S 755 mmHg 32%
    16:00 +31°C° 0 mm 1 m/S 755 mmHg 31%
    17:00 +30°C° 0 mm 1 m/S 755 mmHg 36%
    18:00 +28°C° 0 mm 1 m/S 755 mmHg 40%
    19:00 +27°C° 0 mm 1 m/S 755 mmHg 45%
    20:00 +26°C° 0 mm 1 m/S 755 mmHg 48%
    21:00 +25°C° 0 mm 1 m/S 755 mmHg 50%
    22:00 +23°C° 0 mm 1 m/S 756 mmHg 53%
    23:00 +23°C° 0 mm 1 m/S 755 mmHg 56%

    20 August, Montag

    Zeit Temperatur Niederschläge Wind Luftdruck Luftfeuchtigkeit
    00:00 +22°C° 0 mm 1 m/S 755 mmHg 58%
    01:00 +22°C° 0 mm 1 m/S 755 mmHg 61%
    02:00 +21°C° 0 mm 1 m/S 755 mmHg 64%
    03:00 +19°C° 0 mm 0 m/S 755 mmHg 66%
    04:00 +18°C° 0 mm 0 m/S 755 mmHg 69%
    05:00 +19°C° 0 mm 0 m/S 755 mmHg 68%
    06:00 +20°C° 0 mm 0 m/S 755 mmHg 68%
    07:00 +20°C° 0 mm 0 m/S 755 mmHg 67%
    08:00 +24°C° 0 mm 1 m/S 755 mmHg 62%
    09:00 +26°C° 0 mm 1 m/S 755 mmHg 56%
    10:00 +28°C° 0 mm 1 m/S 755 mmHg 51%
    11:00 +29°C° 0 mm 2 m/S 755 mmHg 47%
    12:00 +30°C° 0 mm 2 m/S 755 mmHg 44%
    13:00 +31°C° 0 mm 2 m/S 755 mmHg 41%
    14:00 +31°C° 0 mm 3 m/S 754 mmHg 42%
    15:00 +31°C° 0 mm 3 m/S 754 mmHg 42%
    16:00 +30°C° 0 mm 3 m/S 754 mmHg 43%
    17:00 +29°C° 0 mm 3 m/S 754 mmHg 48%
    18:00 +28°C° 0 mm 3 m/S 754 mmHg 53%
    19:00 +26°C° 0 mm 2 m/S 754 mmHg 59%
    20:00 +25°C° 0 mm 2 m/S 754 mmHg 63%
    21:00 +24°C° 0 mm 2 m/S 755 mmHg 66%
    22:00 +23°C° 0 mm 1 m/S 755 mmHg 70%
    23:00 +22°C° 0 mm 1 m/S 755 mmHg 73%

    21 August, Dienstag

    Zeit Temperatur Niederschläge Wind Luftdruck Luftfeuchtigkeit
    00:00 +22°C° 0 mm 1 m/S 755 mmHg 76%
    01:00 +21°C° 0 mm 1 m/S 755 mmHg 79%
    02:00 +21°C° 0 mm 1 m/S 755 mmHg 81%
    03:00 +20°C° 0 mm 1 m/S 755 mmHg 84%
    04:00 +20°C° 0 mm 1 m/S 755 mmHg 86%
    05:00 +20°C° 0 mm 1 m/S 756 mmHg 84%
    06:00 +21°C° 0 mm 1 m/S 756 mmHg 83%
    07:00 +21°C° 0 mm 1 m/S 756 mmHg 82%
    08:00 +23°C° 0 mm 1 m/S 756 mmHg 75%
    09:00 +25°C° 0 mm 1 m/S 756 mmHg 68%
    10:00 +27°C° 0 mm 1 m/S 756 mmHg 61%
    11:00 +28°C° 0 mm 1 m/S 756 mmHg 56%
    12:00 +29°C° 0 mm 1 m/S 756 mmHg 52%
    13:00 +30°C° 0 mm 1 m/S 755 mmHg 47%
    14:00 +30°C° 0 mm 1 m/S 755 mmHg 45%
    15:00 +30°C° 0 mm 1 m/S 755 mmHg 42%
    16:00 +31°C° 0 mm 1 m/S 754 mmHg 40%
    17:00 +29°C° 0 mm 1 m/S 754 mmHg 44%
    18:00 +28°C° 0 mm 1 m/S 754 mmHg 47%
    19:00 +27°C° 0 mm 1 m/S 754 mmHg 51%
    20:00 +26°C° 0 mm 1 m/S 754 mmHg 54%
    21:00 +25°C° 0 mm 1 m/S 755 mmHg 57%
    22:00 +23°C° 0 mm 1 m/S 755 mmHg 60%
    23:00 +23°C° 0 mm 1 m/S 755 mmHg 61%

    22 August, Mittwoch

    Zeit Temperatur Niederschläge Wind Luftdruck Luftfeuchtigkeit
    00:00 +22°C° 0 mm 1 m/S 755 mmHg 63%
    01:00 +22°C° 0 mm 1 m/S 755 mmHg 65%
    02:00 +21°C° 0 mm 1 m/S 755 mmHg 66%
    03:00 +21°C° 0 mm 1 m/S 755 mmHg 68%
    04:00 +21°C° 0 mm 1 m/S 755 mmHg 70%
    05:00 +21°C° 0 mm 1 m/S 755 mmHg 69%
    06:00 +22°C° 0 mm 1 m/S 755 mmHg 68%
    07:00 +22°C° 0 mm 1 m/S 755 mmHg 67%
    08:00 +24°C° 0 mm 1 m/S 755 mmHg 61%
    09:00 +26°C° 0 mm 1 m/S 755 mmHg 55%
    10:00 +28°C° 0 mm 1 m/S 755 mmHg 49%
    11:00 +29°C° 0 mm 1 m/S 755 mmHg 46%
    12:00 +31°C° 0 mm 1 m/S 755 mmHg 42%
    13:00 +32°C° 0 mm 1 m/S 754 mmHg 39%
    14:00 +32°C° 0 mm 1 m/S 754 mmHg 39%
    15:00 +31°C° 0 mm 2 m/S 754 mmHg 39%
    16:00 +31°C° 0 mm 2 m/S 754 mmHg 40%
    17:00 +30°C° 0 mm 2 m/S 754 mmHg 45%
    18:00 +29°C° 0 mm 2 m/S 754 mmHg 50%
    19:00 +28°C° 0 mm 2 m/S 754 mmHg 55%
    20:00 +26°C° 0 mm 2 m/S 754 mmHg 59%
    21:00 +25°C° 0 mm 2 m/S 754 mmHg 64%
    22:00 +24°C° 0 mm 2 m/S 755 mmHg 68%
    23:00 +23°C° 0 mm 2 m/S 755 mmHg 71%
    Mehr zeigen